Starlink 30519

operational
NORAD ID: 57985 Int'l Des: 2023-151 Owner: SPXS Country: US Constellation: starlink
LEOCIRCULAR

关于 Starlink 30519

正在加载描述...

实时位置

正在加载3D地球...

即将过境

高度历史

Altitude vs Time

uPlot chart will show altitude changes over time

两行轨道根数

1 57985U 23151X 26061.58335648 .01803897 00000-0 99093-1 0 9990
2 57985 43.0001 30.3320 0002185 240.8402 61.8786 15.10003656 5829
Epoch: Mar 2, 2026 • Age: 27 hours

当前状态

高度 530.8 km
速度 7.60 km/s
星下点 2.54°N, 175.27°W
发射日期 Sep 30, 2023
运行时间 2.4 years
类型 internet

技术详情

分类 Payload
质量 730.00 kg
干质量 700.00 kg
总质量 730.00 kg
长度 0.30 m
直径 4.10 m
跨度 29.00 m
形状 Box + pan
制造商 SPXS
平台类型 Starlink V2M
阶段状态 In Orbit
所有者/国家 SPXS/US

大型星座

Loading constellations...